Regional Weather Roundup
Issued by NWS

Home | Current Version | Previous Version | Text Only | Print | Product List | Glossary On
Versions: 1 2 3 4 5 6 7 8 9 10 11 12 13 14 15 16 17 18 19 20 21 22 23 24 25 26 27 28 29 30 31 32 33 34 35 36 37 38 39 40 41 42 43 44 45 46 47 48 49 50
589
ASUS43 KTOP 100308
RWRKS

WEATHER ROUNDUP FOR KANSAS
NATIONAL WEATHER SERVICE GOODLAND KS
900 PM CST TUE FEB 09 2016

NOTE:  "FAIR" INDICATES FEW OR NO CLOUDS BELOW 12,000 FEET WITH NO
SIGNIFICANT WEATHER AND/OR OBSTRUCTIONS TO VISIBILITY.

KSZ001>006-013>018-027>032-041>047-100400-
NORTHWEST KANSAS

CITY           SKY/WX    TMP DP  RH WIND       PRES   REMARKS
GOODLAND       CLEAR     40  28  62 W15       30.21S WCI  32
HAYS           CLOUDY    28  14  54 SE7       30.25F
HILL CITY      CLOUDY    31  24  75 S6        30.22F
RUSSELL        MOCLDY    28  19  69 SE7       30.24F
$$

KSZ061>065-074>080-084>089-100400-
SOUTHWEST KANSAS

CITY           SKY/WX    TMP DP  RH WIND       PRES   REMARKS
DODGE CITY     MOCLDY    30  20  66 S8        30.25F
ELKHART          N/A     43  25  49 W7          N/A
GARDEN CITY    CLEAR     31  25  78 W6        30.24S
GREAT BEND     CLOUDY    30  16  55 SE5       30.27S
LIBERAL        CLEAR     34  19  55 NW6       30.27S
PRATT          PTCLDY    29  17  61 CALM      30.28S
$$

KSZ066>073-081>083-090>101-100400-
SOUTHEAST KANSAS

CITY           SKY/WX    TMP DP  RH WIND       PRES   REMARKS
CHANUTE        CLEAR     25   8  48 NW8       30.31S
COFFEYVILLE    CLEAR     27   8  44 N10       30.34R WCI  17
HUTCHINSON     CLOUDY    31  13  47 NE8       30.30F
MEDICINE LODGE   N/A     34  19  54 NE3       30.28S
NEWTON         CLOUDY    25  12  58 N5        30.31F
PARSONS        CLEAR     25   8  48 N8        30.33R
WICHITA INTL   CLOUDY    32  13  45 N10       30.30F WCI  24
WICHITA JABRA  PTCLDY    23  13  65 N8        30.31S
WICHITA MCCONL MOCLDY    29  13  50 NE12      30.30F WCI  19
WINFIELD       PTCLDY    28  15  58 N8        30.33S
$$

KSZ007>012-019>026-033>040-048>060-102>105-100400-
NORTHEAST KANSAS

CITY           SKY/WX    TMP DP  RH WIND       PRES   REMARKS
CONCORDIA      CLOUDY    24  14  65 SW5       30.27F
EMPORIA        CLEAR     20   9  62 W3        30.30S
LAWRENCE       PTCLDY    19   8  62 NW7       30.29S
MANHATTAN      PTCLDY    23  12  62 W5        30.30F
MARYSVILLE     MOCLDY    25  14  63 W5        30.27S
OLATHE IND     CLEAR     21   7  54 NW7       30.28R
OLATHE EXE     CLEAR     22   6  50 NW9       30.26S
SALINA         CLOUDY    30  10  43 CALM      30.31F
TOPEKA BILLARD CLEAR     25   9  50 W6        30.29F
TOPEKA FORBES  CLEAR     23   9  55 NW8       30.28S
$$




USA.gov is the U.S. government's official web portal to all federal, state and local government web resources and services.